Wind_Speed
40 41 42 43 44 45 46 47 48 48 49 50 51 51 52 53 53 54 54 54 54 54 54 53 53 53 54 54 55 56 56 57 58 59 60 61 61 61 61 60 60 59 59 60 61 63 64 66 67 69 70 72 73 74 75 76 77 78 78 78 78 78 78 78 78 79 79 79 80 80 81 82 83 84 85 86 87 88 89 91 92 93 93 93 91 89
41 42 43 44 45 46 47 48 48 49 50 50 51 52 52 53 53 54 54 54 54 54 53 53 54 54 55 55 56 57 57 58 58 59 61 62 62 62 62 61 60 60 60 61 62 64 65 67 69 70 72 73 75 76 77 77 78 78 78 78 79 79 79 79 79 79 79 80 80 81 82 83 84 85 86 87 88 89 91 92 93 93 93 91 89 87
42 43 44 45 46 46 47 48 49 49 50 51 51 52 53 53 53 53 54 54 54 54 54 54 54 55 55 56 57 57 58 58 59 60 62 63 63 63 62 62 61 61 61 62 63 65 67 69 70 72 74 75 77 78 78 79 79 79 79 79 79 79 79 79 79 79 80 80 81 82 83 84 85 86 87 88 89 91 92 93 93 93 91 89 86 83
43 44 45 46 46 47 48 48 49 50 50 51 52 53 53 53 53 53 53 54 54 54 54 54 55 55 56 57 57 58 58 59 60 61 63 63 64 64 63 63 62 62 63 64 65 67 69 71 72 74 76 77 78 79 80 80 80 80 80 80 80 80 79 79 80 80 80 81 82 83 84 85 86 87 88 90 91 92 93 93 93 91 89 86 83 79
44 45 46 46 47 47 48 48 49 50 51 52 52 53 53 53 53 53 54 54 54 54 55 55 55 56 57 57 58 58 59 60 61 62 63 64 64 64 64 64 63 64 65 66 67 69 71 73 75 76 78 79 80 81 81 81 81 80 80 80 80 80 80 80 80 81 81 82 83 84 85 86 87 89 90 91 92 93 93 93 91 89 86 83 79 75
45 45 46 46 46 47 48 48 49 50 51 52 53 53 53 53 53 54 54 54 54 55 55 56 56 57 57 58 58 59 60 61 62 63 64 65 65 65 65 65 65 66 67 68 69 71 73 74 76 78 80 81 82 82 82 82 82 81 81 81 80 80 80 80 81 81 82 83 84 85 86 87 89 90 91 92 93 93 93 91 89 86 83 79 75 72
45 45 45 46 46 47 47 48 50 51 52 53 53 53 53 53 53 54 54 54 55 55 56 56 57 57 58 58 59 60 61 62 63 64 65 65 66 66 66 66 67 67 68 70 71 73 74 76 78 80 81 83 83 83 83 83 82 82 81 81 81 80 81 81 81 82 83 84 85 86 88 89 90 91 92 93 93 93 91 89 86 82 79 75 71 68
44 45 45 46 46 47 48 49 50 51 52 53 53 53 53 53 54 54 54 55 55 56 56 57 58 58 59 59 60 61 62 63 64 65 66 66 67 67 67 67 68 69 70 71 73 74 76 78 80 82 83 84 84 84 84 83 83 82 81 81 81 81 81 81 82 83 84 85 86 88 89 90 91 92 93 93 93 91 89 86 82 78 75 71 68 65
44 45 45 46 47 48 49 50 51 51 52 52 53 53 53 53 54 54 55 55 56 56 57 58 58 59 60 60 61 62 63 64 65 66 67 67 68 68 68 69 70 71 72 73 75 76 78 80 82 83 84 84 85 84 84 83 83 82 81 81 81 81 82 82 83 84 85 87 88 89 90 91 92 93 93 93 91 89 86 82 78 74 71 67 64 61
44 45 46 47 47 48 49 50 51 51 52 52 52 53 53 54 54 55 55 55 56 57 57 58 59 60 61 62 62 63 64 65 66 67 68 68 69 69 70 71 72 73 74 76 77 79 81 82 83 84 85 85 85 84 84 83 82 82 81 81 81 82 82 83 84 86 87 88 89 90 91 92 93 93 93 91 88 85 82 78 74 70 67 64 61 58
45 46 47 47 48 48 49 50 51 51 52 52 52 53 53 54 54 55 56 56 57 57 58 59 60 61 62 63 63 64 65 66 67 68 69 69 70 71 72 73 74 76 77 79 80 82 83 84 85 85 85 85 84 84 83 83 82 81 81 81 82 83 84 85 86 87 88 89 90 92 93 93 93 92 91 88 84 81 77 74 70 67 63 60 57 54
45 46 47 47 48 49 49 50 51 51 52 52 53 53 54 54 55 55 56 57 58 58 59 60 61 61 62 63 64 65 66 67 68 69 70 71 71 72 73 75 76 78 80 81 83 84 85 85 85 85 85 84 84 84 83 82 82 82 82 82 83 84 85 86 87 88 89 90 92 93 93 93 92 90 87 84 80 76 73 70 66 63 60 57 54 51
46 46 47 47 48 49 50 50 51 51 52 52 53 53 54 55 55 56 57 58 58 59 60 61 62 62 63 64 65 66 67 68 69 70 71 72 73 74 75 77 79 80 82 83 84 85 85 85 85 85 84 84 84 83 83 82 82 82 83 83 84 85 86 87 88 90 91 92 93 93 93 92 89 86 83 79 76 72 69 66 63 60 56 53 51 48
46 46 47 47 48 49 50 51 51 52 52 52 53 53 54 55 56 57 58 58 59 60 60 61 62 63 63 64 66 67 68 69 71 72 73 74 74 75 77 79 81 82 83 84 85 85 85 84 84 84 84 84 84 83 83 83 83 83 84 85 86 87 88 89 90 91 92 93 93 93 91 89 86 82 78 75 72 69 65 62 59 56 53 50 48 46
45 46 47 48 49 49 50 51 51 52 52 52 53 54 55 56 56 57 58 59 60 60 61 62 62 63 64 65 66 68 69 71 72 73 74 75 76 77 78 80 82 83 84 84 84 84 84 84 84 84 84 84 84 83 83 83 84 84 85 86 87 88 89 90 91 92 93 93 92 90 88 85 81 78 74 71 68 65 62 59 56 53 50 47 45 44
45 46 47 48 49 50 50 51 51 51 52 53 53 54 55 56 57 58 59 60 60 61 61 62 63 64 65 66 67 68 70 71 72 73 74 76 77 79 80 81 83 84 84 83 83 83 84 84 84 84 84 84 84 84 84 84 85 86 86 87 88 89 90 91 92 93 92 91 89 87 84 80 77 74 71 68 65 62 59 56 53 50 47 45 44 43
46 46 47 48 49 50 50 50 51 51 52 53 54 55 56 57 58 59 60 60 61 62 62 63 63 64 66 67 68 68 69 71 72 73 75 77 79 80 81 82 82 83 83 82 82 83 83 83 84 84 84 84 85 85 85 86 86 87 88 89 89 91 91 92 93 92 91 89 86 83 79 77 74 71 68 65 62 59 56 53 50 47 45 43 43 43
46 47 48 49 49 50 50 51 51 52 52 53 55 56 57 58 58 59 60 61 61 62 63 63 64 65 66 68 69 69 70 71 72 74 76 78 80 81 81 81 81 81 81 82 82 83 83 84 84 84 85 85 86 86 86 87 87 88 89 90 91 92 92 93 92 90 88 85 82 79 76 73 70 67 65 62 59 56 53 50 47 45 43 43 43 43
46 47 48 49 50 50 50 50 51 52 53 54 55 56 57 58 59 60 60 61 62 63 63 64 65 65 66 68 69 70 71 72 73 75 77 78 80 80 80 80 80 80 81 81 82 83 84 84 85 85 86 86 87 87 87 88 89 90 91 92 92 93 92 91 89 87 84 81 78 75 72 70 67 64 61 58 55 53 50 47 45 44 43 43 43 44
47 48 48 49 49 50 50 50 51 52 53 54 55 56 57 58 59 60 61 62 62 63 63 64 65 66 67 68 70 71 72 73 75 76 77 78 79 79 79 79 79 80 81 82 83 84 84 85 86 86 87 87 88 88 89 89 90 91 92 92 92 91 90 88 86 83 80 77 75 72 69 67 64 61 58 55 52 50 47 45 44 44 44 44 44 44
47 48 48 48 49 49 50 50 51 52 53 55 56 57 58 59 60 61 61 62 62 62 63 64 65 66 68 69 71 73 74 75 76 77 77 77 77 77 77 78 78 79 81 82 83 84 85 86 87 87 88 88 89 89 90 91 92 92 92 92 90 89 86 84 82 79 77 74 71 69 66 63 61 58 55 52 50 48 46 45 45 45 45 45 45 45
47 47 48 48 48 49 49 50 51 53 54 55 57 58 59 59 60 60 61 61 61 61 62 64 65 67 69 71 73 74 76 76 76 76 76 76 76 77 77 77 78 79 81 82 83 85 86 87 88 88 89 89 90 91 91 92 92 92 91 89 87 85 83 80 78 76 73 71 69 66 63 60 58 55 52 50 48 47 46 46 46 46 46 46 46 45
46 47 47 47 48 48 49 51 52 54 55 56 57 58 59 59 59 59 60 60 60 61 63 65 67 69 71 73 74 76 76 76 76 75 75 74 75 76 77 77 78 79 81 82 83 85 86 87 88 89 90 91 91 92 92 92 91 90 88 86 84 81 79 77 75 73 70 68 66 63 60 57 55 52 50 49 48 47 47 46 46 46 46 46 46 46
46 46 46 47 47 48 50 51 53 55 56 57 58 58 58 58 58 58 59 59 61 62 65 67 69 71 72 74 75 75 76 75 74 74 73 73 74 75 77 77 78 80 81 82 83 84 86 88 89 90 91 92 93 93 92 91 89 87 85 82 80 78 76 74 72 70 68 65 63 60 57 55 53 51 50 49 48 48 47 47 47 47 47 47 47 46
44 45 45 46 47 49 50 52 54 55 56 57 58 58 57 57 58 58 59 60 62 64 67 69 71 72 73 74 74 74 74 73 72 72 72 73 75 76 77 78 78 80 81 83 84 85 86 88 90 91 92 93 93 92 90 88 86 84 82 80 78 76 74 72 70 67 65 63 60 58 56 54 52 51 50 49 49 48 48 48 48 48 47 47 46 46
44 44 45 46 48 49 51 53 54 55 56 56 56 56 57 57 58 59 60 62 64 66 68 70 72 73 73 73 73 72 72 72 72 72 72 73 75 77 78 79 79 80 81 83 84 85 86 88 90 91 92 92 91 89 88 86 83 81 79 77 75 73 71 69 67 65 63 60 58 56 55 53 52 51 50 50 49 49 49 48 48 48 47 47 46 45
43 44 45 47 48 50 52 53 54 55 55 55 55 56 57 58 59 61 62 64 66 68 70 71 72 73 73 72 71 71 71 71 72 72 73 74 76 77 78 79 80 81 82 83 85 86 87 88 90 91 90 90 88 86 85 83 81 79 77 75 73 71 69 67 65 63 61 59 57 55 54 53 52 51 51 50 50 49 49 48 48 47 47 46 45 44
43 44 46 47 48 50 51 52 53 54 54 55 55 56 58 59 61 62 64 65 67 69 70 71 71 71 71 70 69 70 71 71 72 73 74 75 76 77 79 80 81 82 83 84 86 88 88 88 89 89 89 88 86 84 82 81 79 77 75 73 71 69 67 65 63 61 59 57 56 55 53 53 52 51 50 50 49 49 48 47 47 46 45 44 43 42
43 44 46 47 48 49 50 52 52 53 54 55 56 58 59 61 62 64 65 67 68 70 70 71 70 69 69 68 69 70 70 71 72 74 75 76 77 78 79 81 82 83 84 86 88 89 90 89 88 87 86 86 85 83 80 79 77 75 73 71 69 67 65 63 61 59 58 56 55 54 53 52 51 50 50 49 48 48 47 46 45 44 43 42 41 39
43 45 46 47 48 50 51 52 53 54 55 56 58 59 61 62 63 65 66 68 69 69 69 69 68 68 68 68 69 70 71 72 73 74 75 76 78 79 81 82 83 85 86 87 89 90 91 90 88 86 84 83 82 81 79 76 74 72 70 68 67 64 62 60 59 57 56 55 54 53 52 51 50 49 49 48 47 46 45 44 43 42 41 40 38 36
44 45 47 48 49 51 52 53 54 55 56 57 59 60 62 63 65 66 67 68 68 67 67 67 67 67 68 68 69 70 71 73 74 74 75 76 78 80 82 83 85 87 88 89 89 89 90 91 90 87 83 81 79 78 76 74 71 69 67 65 63 62 60 58 57 56 54 53 52 51 50 49 49 48 47 46 45 44 43 42 41 40 38 37 35 34
45 46 48 49 50 52 53 54 55 56 57 59 60 62 64 65 66 66 67 66 66 66 65 66 67 67 68 69 69 70 71 73 74 75 76 78 80 82 83 85 86 88 90 90 90 88 87 87 87 86 83 79 76 75 73 71 69 66 64 62 60 59 57 56 54 53 52 51 50 49 49 48 47 46 45 44 43 42 41 40 38 37 36 34 33 31
46 47 48 49 51 52 53 54 56 57 59 60 62 63 64 65 65 65 65 65 64 64 65 66 67 68 68 69 70 71 72 73 74 76 77 79 81 83 85 87 88 89 90 91 90 89 86 84 83 82 79 77 74 71 69 67 65 63 61 58 57 56 55 54 52 51 51 50 49 48 47 46 45 44 43 42 41 39 38 37 36 34 33 31 30 29
47 48 48 49 50 52 53 55 56 58 60 61 62 63 64 64 64 63 63 63 64 65 65 66 66 67 68 69 70 72 73 74 75 77 79 81 83 85 87 88 89 89 90 90 89 87 85 82 80 77 75 73 71 68 64 62 60 59 57 55 54 53 52 52 51 50 49 48 47 46 45 44 43 42 40 39 38 37 36 34 33 31 30 29 27 26
48 48 48 49 50 52 54 56 57 59 60 61 62 62 62 62 61 61 62 63 64 65 65 66 66 66 67 69 70 72 74 76 77 79 81 83 84 86 88 88 89 89 88 87 86 84 81 79 76 73 69 68 66 64 61 59 57 55 54 53 52 51 51 50 49 49 48 46 45 44 43 42 40 39 38 37 36 34 33 32 30 29 27 26 25 23
48 48 48 50 52 53 55 56 58 59 59 60 60 60 60 60 61 62 63 64 64 65 65 65 66 66 67 69 71 73 75 77 79 81 83 85 86 86 87 88 88 87 85 84 83 80 77 74 71 68 64 61 60 59 58 57 55 53 52 51 51 50 50 49 48 47 45 44 43 41 40 39 38 37 35 34 33 32 30 29 27 26 25 23 22 20
47 48 49 51 53 54 56 57 57 58 58 58 59 59 59 60 61 62 63 63 63 63 63 64 65 67 68 70 72 74 76 79 81 83 84 85 86 86 85 86 86 84 82 79 78 76 73 69 66 64 61 57 55 54 54 54 53 53 52 51 50 49 48 47 46 44 43 41 40 39 37 36 35 34 33 32 31 29 28 26 25 23 22 21 19 17
47 49 51 52 54 54 55 56 56 57 57 57 58 59 60 61 62 62 62 62 62 62 63 64 66 68 70 72 74 76 78 80 82 83 84 85 85 85 84 83 83 81 79 75 73 70 67 64 61 59 57 55 53 52 51 51 51 51 51 50 49 47 46 44 43 41 39 38 37 35 34 33 32 31 30 29 28 27 25 23 22 21 19 18 16 14
48 50 51 52 53 54 55 55 55 56 57 58 59 60 60 60 60 60 60 60 61 62 63 65 67 69 71 73 75 77 79 80 82 82 83 83 83 83 81 80 79 78 76 72 69 65 62 59 56 54 52 51 50 50 49 49 49 49 49 48 47 45 43 41 39 37 36 34 33 33 32 31 30 29 28 27 26 25 23 21 19 18 17 16 14 12
49 50 51 52 52 53 53 54 55 56 57 59 59 59 59 58 58 58 59 59 61 63 64 66 68 71 73 74 76 78 79 80 81 81 81 81 81 80 78 77 75 73 71 69 66 62 58 55 53 51 49 47 47 47 48 48 47 47 46 45 43 41 39 37 35 34 32 31 30 30 29 29 28 27 27 26 24 22 20 18 17 16 15 14 12 10
48 49 50 51 51 52 52 54 55 57 57 58 57 57 56 56 56 57 59 60 62 64 66 68 70 72 74 76 77 78 78 79 79 79 79 78 78 77 76 74 72 70 67 65 62 58 54 50 48 47 46 46 46 46 46 46 46 45 43 41 39 37 35 33 32 30 30 29 29 28 28 27 27 26 25 24 22 20 18 16 15 14 14 13 12 10
47 48 49 49 50 51 53 54 56 56 56 55 55 54 54 55 56 57 59 61 63 65 67 69 71 73 74 76 77 77 77 77 77 76 76 75 75 74 73 71 69 66 62 59 56 53 50 47 45 44 44 44 45 45 46 45 44 42 40 38 36 34 32 30 29 28 28 27 27 27 27 26 26 25 24 23 21 19 17 15 14 13 13 12 11 10
46 47 48 49 50 52 54 55 55 54 54 53 52 53 53 55 56 58 60 62 64 66 68 70 71 72 73 74 75 75 75 74 74 73 73 73 72 71 70 67 64 61 57 53 51 48 47 45 43 42 42 43 44 45 44 44 42 40 37 35 32 31 30 29 28 27 26 26 26 26 26 26 25 24 23 21 19 17 15 14 12 12 12 11 11 10
46 47 48 50 51 53 54 54 53 52 51 51 51 52 54 55 57 59 61 63 65 67 68 70 71 71 72 72 72 72 72 71 71 71 71 71 70 68 65 63 59 56 52 48 45 44 43 43 43 42 42 43 44 44 43 42 40 37 35 32 30 28 27 27 27 26 26 26 26 26 25 25 24 23 21 19 17 16 14 12 11 10 10 10 10 10
46 47 49 51 52 53 52 52 51 50 50 50 51 52 54 56 58 60 62 64 65 67 68 68 69 69 69 69 68 68 69 69 70 70 70 69 67 64 61 57 54 51 48 45 42 41 40 41 42 43 43 43 43 43 42 40 38 35 32 30 28 27 26 26 26 26 26 25 25 25 25 24 23 21 19 18 16 14 13 11 10 9 8 8 8 8
46 48 50 51 51 51 50 49 48 48 48 49 51 53 55 57 59 61 62 64 65 65 66 66 66 65 64 65 65 66 67 68 69 69 68 66 64 61 57 53 49 47 44 42 41 40 39 40 41 42 43 43 43 42 40 38 35 32 30 29 27 27 26 26 26 26 25 25 25 24 24 23 21 20 18 16 14 13 11 10 8 7 6 6 6 6
47 48 49 50 50 49 48 47 46 47 48 49 51 53 55 57 59 61 62 63 63 63 63 63 62 61 61 62 63 64 65 66 67 66 65 63 61 57 54 50 47 45 42 41 40 39 40 40 41 42 42 42 42 41 39 36 33 31 29 28 27 26 26 26 26 26 25 24 24 23 22 21 20 19 17 15 13 12 10 9 7 5 5 4 4 5
47 48 48 48 47 46 45 45 45 46 48 50 52 54 56 58 59 60 61 61 61 60 59 59 59 59 60 61 63 63 64 64 64 63 61 59 57 55 51 48 46 44 42 41 40 39 40 40 41 41 41 41 40 39 37 34 31 29 28 27 27 26 26 26 26 25 24 23 23 22 21 21 19 18 16 14 13 11 10 8 6 5 4 4 4 4
46 47 46 45 44 43 43 44 45 46 48 50 52 54 56 57 58 58 58 58 57 56 56 56 57 58 60 61 62 63 63 62 61 60 58 56 54 52 49 47 45 44 43 41 40 40 40 40 40 40 40 39 39 37 35 32 30 28 27 26 26 26 26 25 25 24 23 22 21 21 21 20 19 17 15 13 12 11 9 8 7 6 6 5 5 5
45 45 44 42 42 41 42 43 45 47 49 51 53 54 55 56 56 56 55 54 53 53 53 55 56 58 59 61 61 61 61 60 60 58 56 54 52 50 48 46 45 43 43 41 40 40 39 39 39 39 38 37 36 35 33 31 29 27 26 26 25 25 25 24 23 22 22 21 21 21 21 20 19 17 15 13 11 10 9 8 7 7 7 6 6 5
43 42 41 40 40 41 42 43 45 47 49 51 52 53 54 53 53 52 51 50 50 51 53 55 56 57 58 59 60 60 60 59 58 56 55 53 50 48 46 45 43 42 42 41 40 39 38 38 37 37 36 35 34 33 31 29 28 26 25 25 24 24 24 23 22 22 21 21 21 21 21 20 18 16 14 12 11 9 9 8 8 8 7 7 6 6
Wind_Direction
285 286 287 288 289 291 292 293 294 295 295 296 296 297 297 298 298 299 299 300 300 300 300 300 300 300 300 301 301 302 302 303 304 305 306 308 308 309 309 308 308 307 307 308 308 309 310 310 311 312 312 312 313 313 313 313 313 313 313 312 312 312 311 311 311 310 310 310 309 309 309 310 310 310 310 311 311 311 312 313 313 314 315 315 315 315
285 287 288 289 290 292 293 294 295 295 296 296 297 297 298 298 298 299 299 300 300 300 300 300 300 300 300 301 301 302 302 303 304 305 306 307 308 308 308 308 307 307 307 307 308 308 309 310 311 312 313 313 313 313 313 313 313 312 312 312 312 311 311 311 310 310 310 310 310 310 310 310 310 310 310 311 311 312 313 313 314 315 315 315 315 315
287 288 289 290 291 292 294 295 295 296 296 297 297 297 298 298 299 299 300 300 300 300 300 300 300 300 300 301 301 302 302 303 304 305 306 307 308 308 308 307 307 306 306 306 307 308 309 310 311 313 313 314 314 314 313 313 313 312 312 312 311 311 310 310 310 310 310 310 310 310 310 310 310 310 311 311 312 312 313 314 314 315 315 315 315 315
288 289 290 291 292 293 294 295 295 296 296 297 297 297 298 298 299 300 300 300 300 300 300 300 300 300 300 301 301 302 303 304 305 306 307 308 308 308 308 307 306 306 306 306 306 307 309 310 311 312 313 314 314 314 313 313 312 312 312 311 311 310 310 310 310 310 310 310 310 310 310 310 310 311 311 312 312 313 313 314 314 315 315 315 314 314
289 290 291 292 293 294 294 295 295 296 296 297 297 298 298 299 300 300 300 300 300 300 300 300 300 300 301 301 302 302 303 304 305 306 307 308 308 308 307 307 306 306 305 306 306 307 308 310 311 312 313 314 314 314 313 313 312 312 311 311 310 310 310 310 310 310 310 310 310 310 310 310 310 311 311 312 312 313 314 314 314 314 314 314 314 313
290 291 292 293 293 294 294 295 295 296 296 297 297 298 299 300 300 300 300 300 300 300 300 300 300 301 301 302 302 303 304 304 305 307 307 308 308 308 307 307 306 306 306 306 307 308 309 310 311 312 313 313 313 313 313 312 312 311 310 310 310 310 310 310 310 310 310 310 310 310 310 310 311 311 311 312 313 313 314 314 314 314 314 314 313 313
291 292 292 293 293 294 295 295 296 296 297 297 298 299 300 300 301 301 300 300 300 300 300 300 301 301 302 302 303 303 304 305 306 307 308 308 308 307 307 307 306 306 306 307 308 308 310 311 312 312 313 313 313 313 312 311 311 310 310 310 310 310 310 310 310 310 310 310 310 310 310 310 311 311 312 312 313 313 314 314 314 314 314 313 313 312
292 292 293 293 294 294 295 295 296 297 297 298 299 299 300 300 300 300 300 300 300 300 301 301 301 302 302 303 303 304 305 306 307 307 308 308 307 307 307 307 307 307 308 308 309 310 311 312 312 312 313 312 312 312 311 310 310 309 309 309 309 309 310 310 310 310 310 310 310 310 310 310 311 311 312 312 313 313 313 314 314 313 313 313 312 312
292 292 292 293 294 294 295 296 296 297 298 298 299 300 300 300 300 300 300 300 301 301 301 301 302 302 303 303 304 305 306 306 307 307 307 307 307 307 307 308 308 308 309 310 310 311 312 312 312 312 312 312 311 310 310 309 309 309 309 309 309 310 310 310 310 310 310 310 310 310 310 310 311 311 312 312 313 313 313 313 313 313 313 312 312 311
291 292 292 293 294 295 296 296 297 297 298 299 299 300 300 300 300 300 300 300 301 301 301 302 302 303 304 305 305 306 306 307 307 307 307 307 307 308 308 308 309 309 310 311 312 312 312 313 312 312 311 310 310 309 309 308 308 309 309 309 310 310 310 310 310 309 309 309 309 310 310 310 311 312 312 313 313 313 313 313 313 313 312 312 311 310
291 292 293 293 294 295 296 296 297 298 299 299 300 300 300 300 300 300 300 301 301 302 302 303 303 304 305 306 306 307 307 307 307 307 307 307 307 308 308 309 310 311 311 312 312 313 313 312 311 311 310 309 308 308 308 308 308 309 309 310 310 310 310 309 309 309 309 309 309 309 310 310 311 312 312 313 313 313 313 313 313 312 312 311 310 309
291 292 293 294 295 296 296 297 298 298 299 299 300 300 300 300 300 301 301 301 302 303 303 304 304 305 305 306 306 307 307 307 307 307 307 307 308 308 309 310 310 311 312 313 313 312 312 311 310 309 308 307 307 307 308 308 309 309 310 310 310 310 309 309 309 309 309 309 309 310 310 311 312 312 312 313 313 313 313 312 312 312 311 310 309 307
291 292 293 294 295 296 297 297 298 298 299 299 299 300 300 300 301 301 302 302 303 303 304 304 305 305 306 306 306 307 307 307 307 307 307 307 308 309 310 310 311 312 312 312 312 311 310 309 308 307 307 307 307 307 308 308 309 309 310 310 310 309 309 309 309 309 309 309 309 310 311 311 312 312 313 313 313 312 312 312 312 311 310 309 307 305
292 293 294 295 296 297 297 298 298 298 299 299 299 300 300 301 301 302 302 303 303 304 305 305 305 306 306 306 306 306 307 307 307 307 308 308 309 309 310 311 311 312 312 311 311 310 309 308 307 306 306 306 307 308 308 309 309 310 310 310 309 309 309 309 308 309 309 309 310 310 311 312 312 312 312 312 312 312 312 311 311 310 309 307 305 304
292 293 295 296 297 297 298 298 298 298 299 299 300 300 301 301 302 302 303 303 304 305 305 305 305 306 306 306 306 307 307 307 307 308 308 309 309 310 311 311 311 311 311 310 308 308 307 306 306 306 306 307 307 308 309 309 310 310 310 309 309 309 308 308 308 309 309 310 310 311 311 312 312 312 312 312 312 312 311 311 310 309 307 306 304 303
293 294 295 296 297 298 298 298 298 298 299 299 300 300 301 302 302 303 304 304 305 305 305 305 305 306 306 306 307 307 307 308 308 309 309 310 310 310 311 311 310 310 309 308 307 306 306 306 306 306 307 307 308 309 309 310 310 310 309 309 309 308 308 308 309 309 310 310 311 311 312 312 312 312 312 312 312 311 311 310 309 307 306 304 303 303
294 295 296 297 298 298 298 298 298 298 299 299 300 301 301 302 303 304 304 305 305 305 305 305 305 306 306 307 308 308 308 308 309 309 310 310 310 310 311 310 309 308 307 307 306 306 306 306 306 307 307 308 309 309 310 310 310 309 309 309 308 308 309 309 309 310 310 311 312 312 312 312 312 312 312 312 311 311 310 309 308 306 305 303 303 302
295 296 297 298 298 298 297 297 298 298 299 299 300 301 302 303 304 304 304 305 305 305 305 305 306 306 307 307 308 309 309 309 309 310 310 310 310 310 310 309 308 307 307 306 306 306 306 307 307 308 308 309 309 310 310 310 310 309 309 309 309 309 309 310 310 311 311 312 312 312 313 313 313 312 312 311 311 310 309 308 306 305 304 303 303 302
296 297 298 298 298 297 297 297 298 298 299 300 301 302 303 303 304 304 304 305 305 305 305 306 306 307 308 308 309 310 310 310 310 310 310 310 310 309 309 308 307 307 307 307 307 307 307 307 308 308 309 310 310 310 310 310 309 309 309 309 309 310 310 310 311 311 312 312 313 313 313 313 313 312 312 311 310 309 308 307 305 304 304 303 303 302
297 297 298 298 297 297 297 297 298 299 300 301 302 302 303 303 304 304 304 305 305 305 306 307 308 308 309 309 310 311 311 310 310 310 310 309 309 309 308 308 307 307 307 307 307 308 308 308 309 309 310 310 310 310 310 310 310 309 309 310 310 310 311 311 312 312 312 313 313 313 313 313 313 312 311 310 309 308 307 306 305 304 303 303 303 302
297 298 298 297 297 297 297 298 298 299 300 301 302 302 303 303 304 304 305 305 306 306 307 308 309 309 310 310 310 311 311 310 310 310 310 309 309 308 308 308 307 307 307 308 308 308 309 309 310 310 310 310 310 310 310 310 310 310 310 310 311 311 312 312 312 313 313 313 314 314 313 313 312 311 310 309 308 307 306 305 305 304 304 303 303 302
297 297 297 297 297 297 297 298 299 300 301 301 302 302 303 303 304 305 306 306 307 308 309 309 310 310 311 311 311 311 311 310 310 310 310 309 309 308 308 307 307 307 308 308 309 309 310 310 310 310 310 310 310 310 310 310 310 310 311 311 312 312 312 313 313 313 314 314 314 314 313 312 312 310 309 308 307 306 306 305 305 304 304 303 303 303
297 297 297 297 297 297 298 299 300 300 301 302 302 303 304 304 305 306 306 307 308 309 310 310 311 311 312 312 311 311 311 310 310 310 310 309 308 308 307 307 307 308 308 309 309 310 310 310 310 310 310 310 310 310 310 310 311 311 312 312 313 313 313 313 314 314 314 314 314 313 313 312 311 309 308 307 307 306 306 305 305 304 304 303 303 303
297 297 297 297 298 298 299 300 300 301 301 302 303 303 305 306 306 307 307 308 309 310 310 311 311 312 312 311 311 311 310 310 310 310 309 308 307 307 307 307 308 308 309 309 310 310 310 310 310 310 310 310 310 310 311 311 312 312 313 313 313 313 314 314 314 314 314 314 313 313 312 311 310 309 308 307 306 306 306 305 305 304 304 303 303 303
297 297 297 298 299 299 300 300 301 301 301 302 303 304 305 306 306 307 307 308 309 310 311 311 311 311 311 311 311 310 310 310 310 309 308 308 307 307 307 308 309 309 310 310 310 311 310 310 310 310 310 310 311 311 311 312 312 313 313 314 314 314 314 314 314 314 314 313 312 312 311 310 309 308 307 307 307 306 306 305 305 304 304 304 303 303
298 298 299 299 300 300 300 300 300 301 302 303 304 305 306 306 306 306 307 309 310 311 311 311 311 311 310 310 310 310 310 310 309 308 308 307 307 307 308 309 310 310 310 311 311 310 310 310 310 310 310 311 311 312 312 313 313 314 314 314 314 314 314 314 314 313 313 312 311 311 310 309 309 308 307 307 307 306 306 305 305 305 304 304 304 304
299 300 300 300 300 300 300 300 301 302 303 304 305 305 305 305 306 307 308 309 310 311 311 311 310 310 310 310 310 310 310 309 309 308 308 308 308 309 309 310 311 311 311 311 310 310 310 310 310 310 311 311 312 312 313 313 314 314 314 314 314 314 314 313 313 313 312 311 311 310 310 309 309 308 308 307 307 307 306 306 305 305 305 305 305 305
301 301 301 301 301 301 301 301 302 303 304 305 305 305 305 305 306 307 309 310 311 311 310 310 310 310 310 310 310 310 309 309 309 308 309 309 309 310 310 311 311 311 311 311 310 310 310 310 311 311 311 312 312 313 313 314 314 314 314 314 314 314 313 313 312 312 311 311 311 310 310 309 309 309 308 308 308 307 307 307 306 306 306 306 306 306
302 302 302 302 302 302 302 303 304 304 305 305 305 304 305 306 307 308 309 310 310 310 309 309 309 310 310 310 310 309 309 309 309 309 310 310 311 311 311 311 311 311 311 311 310 310 310 311 311 311 312 312 312 313 313 314 314 314 314 314 313 313 313 312 312 311 311 311 311 310 310 310 310 309 309 309 308 308 308 307 307 307 307 308 308 307
303 304 304 304 304 304 305 305 305 306 305 305 305 305 305 307 308 309 310 310 310 309 309 309 309 310 310 310 309 309 309 309 310 310 311 311 311 311 311 311 311 311 311 311 311 311 311 311 311 312 312 312 313 313 313 314 314 314 314 313 313 313 312 312 312 311 311 311 311 311 311 311 310 310 310 309 309 309 309 309 309 309 309 309 309 308
304 305 305 305 305 306 306 306 306 306 305 305 305 306 307 308 309 309 309 309 309 308 309 309 309 310 309 309 309 309 310 310 311 312 312 312 311 311 311 311 311 311 311 311 311 311 311 311 311 312 313 313 313 313 314 314 314 313 313 313 313 312 312 312 312 312 312 312 312 312 312 311 311 311 310 310 310 310 310 310 310 310 310 310 310 309
304 305 305 305 306 306 306 306 306 305 305 305 306 307 308 309 309 308 308 308 308 308 309 309 310 310 310 310 310 310 311 311 312 312 312 312 312 312 312 311 311 311 311 311 311 312 312 312 312 312 313 313 314 314 314 313 313 313 313 313 313 312 312 313 313 313 313 313 313 313 312 312 311 311 311 311 312 311 311 312 312 312 312 312 311 310
303 304 304 304 305 305 305 305 305 305 305 306 307 308 308 308 307 307 306 307 308 308 309 310 310 310 310 311 311 312 312 312 313 313 313 312 312 312 312 312 312 312 312 312 312 312 313 313 313 313 313 314 314 314 314 313 313 313 313 314 314 314 314 314 314 314 314 314 313 313 313 312 312 312 312 312 313 313 313 313 314 314 314 313 313 312
303 303 303 303 304 305 305 305 306 306 307 307 308 307 307 306 306 306 306 307 308 309 309 310 310 311 311 312 312 313 313 313 313 313 313 313 313 312 312 312 312 312 312 312 313 313 313 314 314 314 315 314 314 314 314 314 314 314 315 315 316 316 316 316 316 315 315 314 314 313 313 313 313 313 313 314 314 314 315 315 316 316 316 315 315 314
302 302 302 303 304 305 306 306 307 307 307 307 307 306 306 305 306 307 308 309 309 309 310 310 311 312 312 313 313 314 314 314 314 314 313 313 313 313 313 313 313 313 313 313 313 314 314 315 315 315 316 316 315 315 315 316 316 316 317 317 317 317 317 316 316 315 315 314 314 314 313 313 313 314 315 315 316 316 317 318 318 319 319 318 318 317
301 302 303 305 306 307 307 308 307 307 306 306 306 305 306 306 307 308 309 309 309 310 310 311 312 313 314 314 314 314 314 314 314 314 314 314 314 314 314 314 313 314 314 314 314 315 315 316 316 317 317 317 317 317 317 318 318 319 319 319 319 318 317 317 316 315 315 315 314 314 314 314 315 316 316 317 318 318 319 320 321 322 322 323 322 320
301 303 305 306 307 308 307 307 306 306 305 306 306 306 307 308 308 309 309 309 310 311 312 313 314 315 315 315 315 315 315 315 314 314 314 314 314 314 314 314 314 314 315 315 316 316 317 317 318 318 319 319 320 320 320 320 320 320 320 320 320 319 318 317 316 316 315 315 315 315 315 316 316 318 319 319 320 321 321 323 324 326 327 327 326 324
303 304 306 307 307 306 305 305 305 305 306 306 307 308 308 309 309 309 310 311 312 313 314 315 316 316 316 316 315 315 315 315 315 315 315 315 315 315 315 315 315 315 316 317 317 318 319 320 320 321 321 322 322 322 322 322 322 322 321 321 320 319 318 317 317 317 317 317 317 317 317 318 319 320 321 322 322 323 324 325 328 330 332 332 330 328
303 305 305 305 304 304 304 304 305 306 307 308 308 309 309 309 310 310 312 313 314 316 317 317 317 317 316 316 316 316 316 315 315 315 315 315 315 315 316 316 317 317 318 319 320 321 322 323 323 324 324 324 325 324 324 324 323 323 322 322 321 320 319 319 319 319 319 319 319 320 320 321 322 323 324 324 324 324 325 328 331 334 336 335 333 332
302 303 303 302 303 303 304 305 306 307 308 309 309 310 310 311 312 313 314 316 317 318 318 318 317 317 316 316 316 316 316 316 316 316 316 316 316 317 317 318 319 320 321 322 323 324 325 325 326 326 327 327 327 326 326 326 325 324 324 323 323 322 322 322 322 323 323 323 323 323 324 325 325 326 326 326 326 326 327 329 332 336 338 338 337 336
299 300 301 302 303 304 306 307 308 309 310 310 311 311 312 313 315 316 317 318 319 319 319 318 318 317 317 317 317 317 317 317 317 318 318 318 318 319 320 321 322 323 324 325 325 326 327 328 329 329 329 330 329 329 328 328 327 327 326 326 325 324 324 325 326 327 327 328 327 327 327 328 328 329 329 329 328 327 327 328 331 336 339 341 343 344
298 300 302 303 305 306 307 309 310 311 311 312 312 313 314 316 318 319 319 320 320 319 319 318 318 318 318 318 318 318 319 319 319 320 321 321 322 323 324 325 325 326 327 327 328 329 330 330 331 332 332 332 332 331 330 330 330 330 329 329 329 328 329 330 331 332 332 331 331 330 330 331 332 332 332 332 330 329 327 327 329 333 339 344 348 349
300 302 304 305 306 308 309 310 311 312 313 313 314 316 317 319 320 321 321 320 320 319 319 319 319 320 320 320 320 321 321 322 322 323 324 325 326 326 327 327 328 328 329 330 331 331 332 332 333 334 335 335 335 334 333 333 333 333 333 333 333 334 334 335 336 336 335 335 334 334 334 335 336 336 336 335 333 330 327 326 325 329 336 343 348 350
303 304 305 306 308 309 311 312 313 313 314 315 317 318 320 321 321 321 321 320 320 320 320 320 321 321 322 322 323 324 325 325 326 327 328 328 329 329 329 329 330 331 332 333 334 334 334 335 336 337 338 338 337 336 336 336 336 337 338 338 339 339 339 339 339 339 339 338 338 338 339 340 341 341 340 338 335 332 328 326 325 327 334 341 346 348
304 305 306 308 309 311 312 313 314 315 316 318 319 321 322 322 322 322 321 321 321 321 321 322 323 323 324 325 326 328 329 330 331 331 331 331 331 331 331 332 332 333 334 336 336 337 337 337 338 339 340 340 340 339 339 339 340 341 342 343 344 344 344 343 343 342 342 342 343 343 344 345 345 345 343 341 337 333 330 327 326 328 334 340 344 346
305 306 308 309 310 312 313 314 315 317 318 320 321 322 323 323 322 322 322 322 322 323 323 324 325 327 328 329 331 332 333 334 334 334 333 333 333 333 334 335 336 336 337 338 339 339 340 340 340 341 341 342 342 342 342 343 344 346 346 347 348 347 347 346 346 346 346 347 348 348 349 349 349 348 346 343 340 336 333 332 332 335 341 346 348 350
306 307 309 310 311 312 314 315 317 319 321 322 323 323 323 323 322 322 323 323 324 325 326 327 329 331 333 334 336 337 338 337 337 336 336 336 336 336 337 338 339 339 340 341 341 342 342 342 342 343 343 343 344 344 345 346 348 349 350 350 350 350 349 349 349 349 350 351 352 352 352 352 352 352 350 347 343 340 340 341 345 352 3 6 6 3
307 308 309 311 312 313 315 317 319 321 323 323 324 323 323 323 323 324 324 325 326 328 329 332 334 336 338 339 340 341 341 340 339 339 339 339 339 339 340 340 341 341 342 343 343 344 343 343 344 344 345 345 346 347 348 350 351 352 353 352 352 351 351 351 352 352 354 354 355 354 354 355 355 355 354 351 348 348 350 356 6 22 37 41 37 30
308 309 310 311 313 315 317 319 321 323 324 324 324 324 324 324 324 325 326 328 329 332 334 337 340 341 343 344 344 344 343 343 343 342 342 342 342 342 343 343 343 343 343 344 345 345 344 344 344 345 346 347 348 349 351 352 354 355 355 355 354 353 353 354 354 355 357 357 356 355 355 356 357 358 358 356 356 358 4 14 30 47 59 62 58 51
308 309 310 312 315 317 320 322 324 325 325 325 324 324 325 325 326 327 329 331 334 337 340 343 345 346 347 347 347 347 347 347 346 346 346 346 346 346 345 345 345 345 345 345 345 345 345 345 345 346 347 349 350 352 353 355 356 357 358 358 357 356 356 356 357 358 359 358 357 355 355 356 358 0 0 0 2 9 19 33 48 60 67 69 65 59
308 310 312 314 317 320 322 324 325 326 325 325 325 325 326 327 328 330 333 336 339 342 345 347 349 350 351 351 351 351 351 351 351 350 349 349 349 348 348 347 347 346 346 345 345 346 346 346 346 346 348 349 352 354 356 357 359 0 1 1 1 0 360 360 0 0 0 359 357 355 354 355 358 0 2 4 9 19 33 48 59 67 70 70 67 65
Height
5690 5689 5687 5686 5685 5683 5681 5680 5679 5677 5675 5674 5672 5670 5669 5667 5665 5663 5661 5660 5658 5656 5654 5651 5649 5647 5645 5643 5641 5639 5636 5634 5632 5630 5627 5625 5622 5620 5618 5615 5613 5610 5608 5605 5602 5600 5596 5594 5590 5587 5584 5580 5577 5573 5570 5566 5563 5559 5556 5552 5548 5545 5541 5537 5534 5530 5526 5522 5519 5515 5511 5507 5503 5499 5495 5491 5487 5483 5479 5475 5471 5467 5463 5460 5456 5451
5688 5686 5685 5683 5682 5681 5679 5677 5676 5674 5672 5671 5669 5667 5666 5664 5662 5661 5659 5657 5655 5653 5651 5648 5646 5644 5642 5640 5638 5636 5633 5631 5629 5626 5624 5622 5619 5617 5614 5612 5609 5607 5604 5601 5599 5596 5593 5590 5586 5583 5579 5576 5572 5569 5565 5562 5558 5554 5551 5547 5544 5540 5536 5533 5529 5525 5521 5517 5513 5509 5505 5501 5497 5493 5489 5485 5481 5477 5473 5469 5465 5461 5458 5454 5450 5446
5685 5684 5682 5681 5679 5678 5676 5675 5673 5671 5670 5668 5666 5664 5663 5661 5659 5657 5656 5654 5651 5650 5648 5646 5643 5641 5639 5636 5634 5632 5630 5628 5626 5623 5621 5618 5616 5613 5611 5608 5606 5603 5601 5598 5595 5592 5589 5586 5582 5579 5575 5571 5568 5564 5561 5557 5553 5550 5546 5542 5539 5535 5531 5528 5524 5520 5516 5512 5508 5504 5500 5496 5491 5488 5484 5480 5476 5472 5468 5464 5460 5456 5453 5449 5445 5441
5682 5681 5680 5678 5676 5675 5674 5672 5670 5668 5666 5665 5663 5661 5660 5658 5656 5654 5653 5651 5649 5646 5644 5642 5640 5638 5636 5633 5631 5629 5627 5624 5622 5620 5617 5615 5612 5610 5607 5605 5602 5599 5597 5594 5591 5588 5585 5581 5578 5575 5571 5567 5563 5560 5556 5552 5549 5545 5541 5538 5534 5530 5526 5523 5519 5515 5511 5507 5503 5498 5494 5490 5486 5482 5478 5474 5470 5466 5463 5459 5455 5451 5447 5444 5440 5436
5680 5678 5677 5676 5674 5672 5671 5669 5667 5665 5664 5662 5660 5658 5657 5655 5653 5651 5649 5647 5646 5643 5641 5639 5637 5635 5633 5630 5628 5626 5623 5621 5619 5616 5613 5611 5608 5606 5603 5601 5598 5596 5593 5590 5587 5584 5581 5577 5574 5570 5566 5562 5559 5555 5551 5547 5544 5540 5536 5533 5529 5525 5521 5517 5513 5509 5506 5501 5497 5493 5489 5485 5481 5477 5473 5469 5465 5461 5458 5454 5450 5446 5442 5439 5435 5431
5677 5676 5674 5673 5671 5670 5668 5666 5665 5663 5661 5659 5657 5656 5654 5652 5650 5648 5646 5644 5642 5640 5638 5636 5634 5632 5630 5627 5625 5622 5620 5617 5615 5612 5610 5607 5605 5602 5599 5597 5594 5591 5589 5586 5583 5580 5576 5573 5569 5565 5561 5558 5554 5550 5546 5543 5539 5535 5531 5528 5524 5520 5516 5512 5508 5504 5500 5496 5492 5488 5484 5480 5476 5471 5468 5464 5460 5456 5452 5449 5445 5441 5437 5433 5430 5426
5674 5673 5671 5670 5669 5667 5666 5664 5662 5660 5658 5656 5655 5653 5651 5649 5647 5645 5643 5641 5639 5637 5635 5632 5631 5629 5626 5624 5621 5619 5616 5614 5611 5608 5606 5603 5601 5598 5595 5593 5590 5587 5584 5581 5579 5576 5572 5568 5565 5561 5557 5553 5549 5545 5541 5538 5534 5531 5527 5523 5519 5515 5511 5507 5503 5499 5495 5491 5486 5482 5478 5474 5470 5466 5462 5459 5455 5451 5447 5443 5440 5436 5432 5429 5425 5422
5671 5670 5669 5668 5666 5665 5663 5661 5659 5657 5655 5653 5652 5650 5648 5646 5644 5642 5640 5638 5636 5634 5631 5629 5627 5625 5623 5621 5618 5616 5613 5610 5607 5604 5601 5599 5596 5594 5591 5588 5586 5583 5580 5577 5574 5571 5567 5564 5560 5556 5552 5548 5544 5541 5537 5533 5530 5526 5522 5518 5514 5510 5506 5501 5498 5493 5489 5485 5481 5477 5473 5469 5465 5461 5457 5453 5450 5446 5442 5438 5435 5431 5427 5424 5421 5418
5669 5667 5666 5665 5664 5662 5660 5658 5656 5655 5652 5650 5649 5647 5645 5643 5641 5639 5637 5635 5633 5631 5628 5626 5623 5621 5619 5617 5615 5612 5609 5606 5603 5601 5597 5594 5591 5589 5586 5584 5581 5578 5575 5572 5569 5566 5563 5559 5555 5551 5547 5544 5540 5536 5532 5529 5525 5521 5517 5513 5509 5505 5501 5496 5492 5488 5484 5480 5476 5472 5468 5464 5460 5456 5452 5448 5444 5440 5437 5433 5430 5426 5423 5420 5416 5413
5666 5665 5663 5662 5661 5660 5657 5655 5653 5651 5650 5647 5646 5644 5642 5640 5638 5636 5634 5632 5630 5628 5625 5622 5620 5617 5615 5612 5611 5608 5605 5602 5599 5596 5593 5590 5587 5584 5581 5579 5576 5573 5570 5567 5564 5561 5558 5554 5551 5547 5543 5539 5535 5531 5528 5524 5520 5516 5512 5508 5504 5499 5495 5491 5487 5483 5479 5475 5471 5466 5462 5458 5454 5450 5446 5442 5439 5435 5431 5428 5425 5421 5418 5415 5412 5409
5664 5662 5661 5659 5658 5656 5655 5653 5651 5648 5646 5645 5643 5641 5639 5637 5635 5632 5630 5628 5626 5625 5622 5619 5617 5614 5611 5608 5606 5604 5601 5598 5595 5592 5589 5586 5583 5580 5577 5574 5571 5567 5564 5561 5558 5556 5552 5549 5546 5542 5538 5534 5531 5527 5523 5519 5515 5511 5507 5503 5498 5494 5490 5486 5482 5478 5474 5469 5465 5461 5457 5453 5449 5445 5441 5437 5433 5430 5426 5423 5420 5416 5413 5411 5408 5405
5661 5660 5658 5656 5655 5653 5651 5650 5648 5646 5644 5642 5640 5638 5636 5634 5632 5630 5627 5625 5623 5621 5618 5616 5613 5611 5608 5605 5602 5599 5597 5594 5591 5588 5585 5581 5579 5576 5573 5569 5566 5562 5559 5556 5553 5550 5547 5544 5540 5536 5533 5530 5526 5522 5518 5514 5510 5506 5502 5497 5493 5489 5485 5481 5476 5472 5468 5464 5460 5456 5451 5447 5443 5440 5436 5432 5428 5425 5421 5418 5415 5412 5409 5406 5404 5401
5658 5657 5655 5654 5652 5650 5648 5646 5644 5643 5641 5639 5637 5635 5632 5631 5629 5627 5624 5621 5620 5617 5615 5612 5609 5607 5605 5602 5599 5596 5593 5590 5587 5584 5581 5577 5575 5572 5568 5564 5561 5557 5555 5551 5547 5544 5542 5539 5535 5531 5528 5524 5521 5516 5513 5509 5505 5501 5497 5492 5488 5484 5479 5475 5471 5467 5463 5458 5454 5450 5446 5441 5438 5434 5431 5427 5423 5420 5417 5414 5411 5408 5405 5403 5400 5398
5655 5654 5652 5651 5649 5647 5645 5643 5641 5639 5638 5636 5634 5632 5630 5628 5626 5624 5621 5618 5616 5614 5612 5609 5606 5604 5601 5598 5595 5592 5589 5586 5583 5579 5576 5572 5570 5567 5564 5560 5556 5552 5550 5547 5543 5539 5536 5533 5530 5526 5522 5519 5515 5511 5507 5504 5500 5496 5491 5487 5483 5478 5474 5470 5466 5461 5457 5452 5448 5444 5440 5436 5432 5429 5426 5422 5419 5416 5412 5410 5407 5404 5401 5399 5396 5394
5652 5651 5649 5647 5646 5644 5642 5640 5638 5636 5635 5633 5631 5629 5627 5625 5622 5620 5618 5615 5612 5611 5608 5605 5602 5600 5598 5596 5593 5589 5585 5581 5578 5575 5571 5567 5565 5562 5560 5555 5551 5547 5545 5542 5538 5534 5531 5528 5525 5521 5517 5513 5510 5506 5502 5498 5494 5490 5486 5481 5477 5473 5468 5464 5460 5456 5451 5447 5443 5438 5434 5431 5427 5424 5421 5417 5414 5411 5408 5405 5403 5400 5398 5395 5393 5391
5650 5648 5646 5644 5643 5641 5639 5637 5636 5634 5632 5630 5628 5626 5624 5621 5619 5617 5614 5612 5609 5607 5605 5602 5599 5596 5594 5592 5590 5587 5583 5578 5575 5571 5568 5564 5560 5557 5555 5551 5546 5542 5539 5536 5533 5529 5525 5522 5518 5515 5511 5508 5504 5501 5497 5493 5489 5485 5480 5476 5471 5467 5462 5458 5454 5450 5445 5441 5437 5433 5429 5425 5422 5419 5416 5412 5409 5406 5404 5401 5399 5396 5394 5392 5390 5387
5646 5645 5643 5641 5640 5638 5636 5635 5633 5631 5629 5627 5625 5623 5621 5618 5616 5613 5611 5608 5606 5603 5601 5598 5596 5593 5590 5586 5585 5583 5581 5576 5571 5568 5565 5560 5556 5552 5550 5546 5542 5537 5534 5530 5527 5523 5520 5516 5512 5509 5505 5502 5498 5495 5491 5487 5483 5479 5474 5470 5465 5461 5456 5452 5448 5443 5439 5435 5431 5427 5424 5420 5417 5414 5411 5408 5405 5402 5399 5397 5395 5392 5390 5388 5386 5384
5644 5642 5641 5639 5637 5636 5634 5632 5630 5628 5626 5624 5622 5620 5617 5615 5613 5610 5607 5605 5602 5600 5597 5594 5592 5590 5587 5583 5580 5578 5577 5573 5569 5565 5561 5556 5552 5548 5545 5542 5537 5533 5529 5525 5521 5517 5514 5510 5506 5503 5499 5496 5492 5489 5485 5481 5477 5472 5468 5463 5459 5454 5450 5445 5441 5437 5433 5429 5426 5422 5418 5415 5412 5409 5406 5403 5400 5398 5395 5393 5391 5389 5386 5385 5383 5381
5641 5640 5638 5636 5634 5633 5631 5629 5627 5626 5623 5621 5619 5616 5614 5611 5609 5607 5604 5602 5599 5596 5594 5591 5588 5585 5583 5580 5576 5574 5572 5569 5565 5561 5557 5553 5548 5544 5541 5537 5532 5527 5523 5519 5516 5511 5507 5503 5500 5496 5493 5490 5486 5483 5479 5475 5470 5466 5461 5456 5452 5447 5443 5439 5435 5431 5427 5423 5420 5416 5413 5410 5407 5404 5401 5398 5396 5393 5391 5389 5387 5385 5383 5381 5379 5377
5638 5636 5635 5634 5631 5630 5628 5626 5625 5623 5621 5618 5616 5613 5611 5608 5606 5604 5601 5599 5596 5593 5591 5587 5584 5581 5579 5576 5573 5570 5568 5565 5561 5557 5553 5549 5545 5540 5537 5533 5528 5523 5518 5513 5509 5505 5501 5497 5494 5490 5487 5483 5480 5476 5472 5468 5463 5459 5454 5449 5445 5440 5436 5432 5428 5424 5421 5417 5414 5411 5408 5405 5402 5399 5396 5394 5391 5389 5387 5385 5383 5381 5379 5377 5376 5374
5635 5634 5632 5631 5629 5627 5625 5623 5622 5620 5617 5615 5612 5610 5608 5605 5603 5600 5598 5596 5593 5590 5587 5584 5581 5578 5576 5572 5569 5566 5563 5561 5557 5553 5549 5545 5540 5536 5533 5530 5525 5519 5514 5509 5504 5499 5495 5491 5487 5484 5480 5477 5473 5470 5466 5461 5456 5452 5447 5442 5438 5434 5429 5426 5422 5418 5415 5412 5409 5406 5403 5400 5397 5394 5392 5390 5387 5385 5383 5381 5379 5377 5376 5374 5372 5370
5632 5631 5630 5628 5626 5625 5623 5621 5619 5616 5614 5612 5609 5607 5604 5602 5599 5597 5594 5592 5589 5586 5583 5580 5577 5575 5572 5569 5565 5561 5558 5556 5552 5549 5545 5540 5536 5531 5528 5525 5521 5515 5510 5505 5500 5494 5489 5484 5481 5477 5474 5470 5466 5463 5459 5455 5450 5445 5441 5436 5431 5427 5423 5419 5416 5412 5409 5406 5404 5401 5398 5395 5392 5390 5388 5386 5383 5381 5379 5377 5376 5374 5372 5370 5369 5367
5630 5628 5626 5625 5623 5622 5620 5618 5615 5613 5611 5609 5606 5604 5601 5599 5596 5594 5591 5588 5586 5583 5580 5577 5574 5571 5568 5565 5561 5556 5553 5550 5547 5544 5540 5536 5532 5528 5524 5521 5516 5511 5506 5501 5496 5491 5485 5478 5474 5470 5467 5463 5460 5456 5452 5448 5443 5439 5434 5430 5425 5421 5417 5414 5410 5407 5404 5401 5399 5396 5393 5391 5388 5386 5383 5381 5379 5377 5376 5374 5372 5370 5368 5367 5365 5363
5627 5626 5624 5622 5620 5619 5616 5614 5612 5610 5607 5605 5603 5600 5598 5596 5593 5590 5587 5585 5582 5579 5576 5573 5570 5566 5563 5560 5557 5553 5549 5546 5543 5539 5536 5532 5527 5524 5520 5517 5513 5507 5501 5496 5492 5487 5481 5474 5468 5463 5460 5456 5453 5449 5445 5441 5436 5432 5428 5424 5420 5416 5412 5408 5405 5402 5399 5396 5394 5391 5389 5386 5384 5382 5379 5377 5376 5374 5372 5370 5368 5366 5364 5362 5361 5359
5624 5623 5621 5619 5617 5616 5613 5611 5609 5606 5604 5602 5600 5597 5595 5592 5589 5586 5584 5581 5579 5576 5572 5569 5566 5563 5559 5556 5553 5550 5546 5543 5539 5536 5532 5527 5523 5519 5515 5512 5509 5504 5498 5493 5488 5483 5477 5471 5464 5458 5453 5449 5446 5442 5438 5434 5430 5426 5422 5418 5414 5410 5407 5403 5400 5397 5395 5392 5390 5387 5385 5382 5380 5378 5375 5373 5371 5370 5368 5366 5364 5362 5360 5358 5357 5355
5621 5620 5618 5616 5615 5613 5610 5608 5606 5603 5601 5599 5596 5594 5591 5589 5586 5583 5581 5578 5576 5572 5569 5566 5562 5559 5556 5552 5549 5546 5542 5539 5535 5532 5528 5524 5519 5514 5511 5507 5504 5500 5495 5489 5484 5479 5474 5468 5461 5453 5447 5443 5439 5436 5432 5428 5424 5420 5416 5412 5409 5405 5402 5399 5396 5393 5391 5388 5386 5383 5380 5378 5376 5374 5371 5369 5367 5366 5364 5362 5360 5358 5356 5354 5353 5351
5619 5617 5616 5614 5612 5610 5608 5605 5603 5601 5598 5596 5593 5591 5588 5586 5583 5580 5577 5575 5572 5569 5566 5562 5559 5555 5551 5548 5545 5541 5538 5535 5531 5527 5523 5520 5515 5511 5506 5503 5499 5495 5491 5486 5480 5475 5470 5464 5458 5450 5443 5437 5433 5430 5426 5422 5418 5414 5411 5407 5404 5401 5397 5394 5391 5389 5386 5384 5381 5379 5376 5374 5371 5369 5367 5365 5363 5361 5360 5358 5356 5354 5352 5351 5349 5347
5616 5615 5613 5611 5609 5607 5605 5603 5600 5598 5596 5593 5590 5588 5585 5582 5580 5576 5574 5571 5569 5566 5562 5559 5556 5552 5548 5544 5541 5537 5534 5531 5526 5522 5518 5514 5510 5506 5503 5499 5495 5490 5486 5481 5475 5469 5465 5460 5454 5447 5440 5433 5428 5424 5421 5417 5413 5409 5406 5402 5399 5396 5393 5390 5387 5385 5382 5380 5377 5375 5372 5370 5367 5365 5363 5361 5360 5358 5356 5354 5352 5350 5349 5347 5346 5344
5614 5612 5611 5609 5606 5604 5602 5600 5598 5595 5593 5590 5587 5585 5582 5580 5577 5574 5571 5568 5565 5562 5558 5555 5552 5548 5545 5541 5537 5533 5530 5527 5523 5519 5514 5510 5505 5501 5498 5494 5489 5485 5481 5477 5471 5464 5458 5453 5449 5444 5438 5430 5424 5419 5416 5412 5409 5405 5401 5398 5395 5391 5389 5386 5383 5381 5378 5376 5373 5371 5368 5366 5363 5361 5359 5358 5356 5354 5352 5350 5348 5347 5345 5343 5342 5341
5611 5610 5608 5606 5604 5601 5599 5597 5595 5592 5590 5587 5585 5581 5579 5576 5574 5571 5567 5564 5561 5558 5554 5551 5547 5544 5541 5537 5533 5529 5526 5523 5520 5516 5511 5506 5501 5496 5493 5489 5484 5479 5475 5471 5466 5460 5453 5447 5442 5438 5433 5427 5421 5416 5411 5408 5404 5401 5397 5394 5391 5387 5385 5382 5380 5377 5374 5371 5369 5367 5364 5362 5360 5358 5356 5354 5352 5351 5349 5347 5345 5343 5341 5340 5339 5337
5609 5607 5605 5603 5601 5599 5596 5594 5591 5589 5587 5584 5581 5579 5576 5573 5570 5567 5564 5561 5558 5555 5551 5547 5543 5540 5537 5533 5530 5526 5522 5518 5515 5511 5507 5503 5497 5492 5488 5484 5479 5473 5468 5464 5461 5456 5450 5443 5436 5431 5426 5422 5417 5412 5407 5403 5400 5397 5394 5391 5387 5384 5381 5378 5376 5373 5370 5368 5366 5363 5361 5358 5356 5354 5352 5351 5349 5347 5345 5344 5342 5340 5339 5337 5336 5335
5606 5604 5602 5600 5598 5596 5593 5591 5589 5586 5584 5581 5578 5576 5572 5570 5566 5564 5561 5557 5554 5551 5547 5543 5540 5536 5533 5530 5526 5523 5519 5515 5511 5506 5502 5498 5493 5487 5483 5479 5474 5468 5462 5457 5453 5449 5445 5440 5433 5427 5421 5417 5412 5408 5404 5400 5396 5393 5390 5388 5384 5381 5377 5375 5372 5370 5367 5364 5362 5360 5357 5355 5353 5351 5349 5348 5346 5344 5342 5341 5339 5337 5336 5335 5333 5332
5603 5601 5599 5597 5595 5593 5591 5588 5586 5583 5581 5578 5575 5572 5569 5566 5563 5560 5557 5554 5551 5547 5544 5541 5536 5532 5529 5525 5522 5518 5515 5511 5507 5502 5498 5493 5488 5482 5477 5473 5468 5463 5457 5451 5446 5442 5438 5433 5428 5423 5418 5413 5408 5404 5401 5396 5393 5389 5387 5384 5381 5377 5374 5371 5369 5366 5363 5361 5359 5356 5354 5352 5350 5348 5346 5345 5343 5341 5340 5338 5336 5335 5333 5332 5331 5330
5601 5599 5596 5595 5592 5590 5588 5586 5583 5580 5578 5575 5572 5569 5566 5563 5560 5557 5554 5550 5547 5544 5541 5537 5534 5530 5526 5522 5517 5513 5510 5506 5502 5498 5493 5488 5483 5478 5472 5467 5462 5457 5452 5446 5441 5436 5431 5426 5422 5418 5414 5409 5403 5399 5396 5393 5390 5386 5383 5381 5378 5375 5371 5368 5365 5363 5360 5358 5356 5353 5351 5349 5347 5346 5344 5342 5341 5339 5337 5336 5334 5333 5331 5330 5329 5327
5598 5596 5594 5592 5590 5587 5585 5583 5580 5577 5575 5572 5570 5566 5564 5560 5557 5554 5550 5547 5544 5541 5537 5534 5531 5527 5523 5519 5514 5509 5505 5500 5496 5492 5487 5483 5478 5473 5467 5461 5456 5451 5447 5441 5436 5431 5427 5422 5417 5413 5409 5405 5400 5395 5391 5388 5385 5382 5380 5377 5375 5371 5368 5365 5362 5360 5357 5355 5352 5350 5348 5346 5345 5343 5341 5340 5338 5336 5335 5334 5332 5331 5330 5328 5327 5326
5595 5593 5591 5589 5587 5585 5582 5580 5577 5575 5572 5569 5566 5564 5561 5557 5554 5551 5547 5544 5541 5538 5534 5531 5527 5523 5520 5516 5511 5506 5501 5496 5491 5486 5482 5477 5472 5467 5462 5456 5451 5446 5441 5436 5431 5426 5421 5417 5412 5408 5404 5401 5397 5392 5387 5383 5380 5378 5376 5373 5371 5368 5365 5362 5359 5357 5354 5352 5350 5347 5346 5344 5342 5341 5340 5338 5336 5335 5333 5332 5331 5329 5328 5327 5326 5324
5592 5591 5589 5586 5584 5582 5579 5577 5575 5572 5570 5566 5563 5560 5557 5554 5551 5548 5544 5541 5538 5535 5531 5528 5524 5520 5515 5511 5507 5502 5497 5492 5487 5482 5477 5471 5467 5462 5457 5451 5446 5440 5436 5432 5427 5422 5417 5413 5408 5403 5399 5396 5393 5389 5386 5381 5377 5374 5371 5370 5367 5365 5361 5358 5356 5354 5351 5349 5347 5345 5343 5342 5340 5339 5338 5336 5335 5333 5331 5331 5329 5328 5327 5326 5325 5323
5590 5588 5586 5584 5581 5579 5577 5575 5572 5570 5567 5564 5560 5557 5554 5551 5548 5545 5541 5538 5535 5532 5528 5525 5520 5516 5511 5507 5502 5498 5493 5488 5483 5478 5472 5467 5462 5457 5452 5447 5441 5435 5431 5426 5422 5418 5413 5409 5405 5400 5396 5392 5388 5385 5382 5380 5376 5372 5369 5366 5364 5361 5358 5355 5353 5351 5349 5347 5345 5343 5341 5340 5339 5337 5336 5335 5333 5331 5330 5329 5328 5327 5326 5325 5324 5323
5587 5585 5583 5581 5579 5577 5575 5572 5569 5566 5563 5560 5557 5554 5551 5548 5545 5541 5539 5535 5532 5528 5525 5521 5516 5512 5508 5503 5499 5494 5489 5484 5479 5474 5469 5463 5458 5453 5448 5443 5437 5431 5426 5421 5417 5413 5409 5405 5401 5397 5393 5390 5386 5382 5379 5376 5374 5371 5367 5363 5360 5358 5355 5353 5351 5348 5346 5345 5343 5341 5340 5338 5337 5336 5335 5333 5332 5331 5329 5328 5327 5327 5326 5325 5324 5323
5585 5583 5581 5579 5577 5575 5572 5569 5566 5563 5560 5556 5554 5551 5548 5545 5542 5538 5535 5532 5529 5525 5521 5517 5513 5508 5504 5500 5496 5491 5486 5481 5475 5470 5465 5459 5454 5448 5443 5438 5432 5427 5421 5416 5412 5408 5405 5401 5397 5393 5390 5387 5384 5381 5377 5374 5371 5368 5365 5361 5358 5355 5352 5350 5348 5346 5345 5343 5341 5340 5338 5337 5336 5335 5333 5332 5331 5330 5329 5328 5327 5326 5326 5325 5324 5323
5583 5581 5579 5576 5574 5571 5569 5566 5563 5560 5556 5554 5551 5547 5545 5542 5539 5536 5532 5528 5525 5521 5517 5513 5508 5504 5499 5495 5491 5486 5482 5477 5471 5466 5460 5455 5449 5443 5438 5432 5427 5422 5418 5413 5408 5404 5401 5398 5395 5391 5388 5385 5381 5378 5375 5372 5369 5366 5362 5359 5356 5353 5351 5349 5347 5345 5343 5341 5340 5339 5337 5336 5335 5333 5332 5331 5330 5328 5328 5327 5326 5326 5325 5325 5324 5323
5581 5579 5576 5574 5571 5568 5566 5562 5560 5556 5554 5551 5548 5545 5542 5539 5536 5533 5529 5525 5521 5517 5513 5509 5504 5500 5495 5489 5485 5480 5476 5471 5466 5461 5455 5449 5443 5438 5432 5427 5422 5418 5414 5410 5405 5401 5398 5395 5393 5390 5386 5383 5380 5376 5372 5369 5366 5363 5360 5357 5354 5351 5349 5347 5346 5344 5342 5341 5339 5338 5336 5335 5334 5332 5331 5330 5329 5327 5327 5326 5326 5326 5325 5324 5324 5323
5578 5576 5574 5571 5568 5565 5562 5560 5557 5554 5551 5548 5546 5543 5540 5536 5533 5530 5526 5522 5518 5514 5510 5505 5500 5496 5491 5486 5480 5475 5470 5465 5460 5455 5450 5444 5438 5433 5428 5423 5418 5414 5411 5407 5403 5399 5395 5392 5390 5388 5386 5382 5378 5374 5371 5367 5364 5361 5358 5355 5353 5350 5347 5346 5345 5343 5341 5340 5338 5337 5336 5334 5333 5331 5330 5329 5328 5327 5326 5326 5325 5325 5325 5324 5324 5323
5576 5573 5571 5568 5565 5562 5560 5557 5554 5551 5549 5546 5543 5540 5537 5534 5530 5527 5523 5519 5515 5511 5506 5501 5497 5492 5486 5481 5477 5471 5466 5460 5455 5450 5444 5439 5434 5429 5424 5420 5415 5411 5407 5405 5402 5398 5394 5390 5387 5385 5383 5380 5377 5373 5369 5365 5362 5359 5356 5354 5352 5349 5347 5346 5344 5342 5341 5340 5338 5336 5335 5333 5332 5331 5329 5328 5327 5326 5325 5325 5325 5325 5324 5324 5323 5323
5573 5570 5568 5565 5562 5560 5557 5555 5552 5549 5547 5544 5541 5538 5535 5531 5528 5524 5521 5516 5512 5507 5502 5498 5494 5489 5483 5478 5473 5467 5462 5456 5450 5445 5440 5435 5430 5425 5421 5417 5413 5409 5405 5402 5399 5396 5393 5390 5386 5383 5380 5378 5375 5371 5368 5364 5361 5358 5356 5353 5351 5349 5347 5346 5344 5342 5341 5339 5337 5336 5334 5333 5331 5330 5329 5328 5326 5326 5325 5324 5324 5324 5324 5324 5323 5323
5570 5568 5565 5562 5560 5557 5555 5552 5550 5547 5545 5542 5539 5536 5532 5529 5525 5521 5517 5513 5509 5505 5500 5495 5491 5486 5481 5475 5469 5464 5458 5451 5445 5440 5435 5430 5425 5421 5417 5413 5409 5406 5403 5400 5397 5394 5391 5388 5385 5382 5379 5376 5373 5370 5367 5363 5360 5357 5355 5353 5351 5349 5347 5346 5344 5342 5341 5339 5337 5336 5334 5333 5331 5330 5329 5327 5326 5325 5324 5324 5324 5324 5323 5323 5323 5323
5567 5565 5563 5560 5558 5556 5553 5551 5548 5546 5543 5540 5536 5533 5530 5526 5522 5519 5514 5510 5506 5502 5497 5492 5487 5483 5477 5472 5466 5461 5455 5449 5443 5437 5431 5426 5421 5416 5413 5409 5406 5403 5400 5398 5395 5392 5389 5386 5383 5381 5378 5375 5371 5368 5365 5363 5360 5357 5355 5353 5351 5349 5347 5346 5344 5342 5341 5339 5337 5336 5334 5333 5332 5330 5329 5327 5326 5325 5324 5323 5323 5323 5323 5323 5323 5323
5565 5562 5560 5558 5556 5554 5551 5549 5546 5544 5541 5538 5534 5531 5527 5524 5520 5516 5512 5507 5503 5499 5495 5490 5484 5479 5474 5468 5463 5458 5452 5447 5441 5436 5430 5424 5419 5414 5410 5406 5403 5400 5398 5395 5393 5391 5388 5385 5382 5379 5377 5374 5371 5367 5365 5362 5360 5357 5355 5353 5351 5349 5347 5346 5344 5342 5341 5339 5338 5336 5335 5333 5332 5331 5329 5327 5326 5325 5324 5324 5323 5323 5323 5323 5323 5323
5562 5560 5558 5556 5554 5551 5549 5547 5544 5542 5539 5536 5532 5529 5525 5521 5517 5514 5510 5506 5501 5496 5492 5487 5482 5476 5471 5466 5461 5456 5450 5445 5439 5433 5428 5422 5417 5413 5408 5405 5401 5398 5396 5393 5391 5389 5386 5383 5381 5378 5376 5373 5370 5367 5365 5362 5360 5358 5356 5354 5351 5350 5348 5346 5345 5343 5341 5340 5338 5336 5335 5334 5332 5331 5329 5328 5326 5325 5325 5324 5324 5324 5323 5323 5323 5323
5560 5558 5556 5554 5552 5550 5547 5545 5542 5539 5536 5533 5530 5526 5522 5519 5515 5511 5507 5503 5499 5494 5490 5485 5480 5474 5469 5464 5459 5454 5448 5443 5437 5431 5426 5421 5416 5412 5408 5404 5401 5398 5395 5392 5390 5388 5386 5383 5380 5377 5376 5373 5371 5368 5365 5362 5360 5358 5356 5354 5352 5350 5349 5347 5345 5343 5342 5340 5339 5337 5336 5334 5332 5331 5330 5328 5327 5326 5325 5325 5325 5325 5324 5324 5324 5324
5558 5556 5554 5552 5550 5548 5546 5543 5540 5537 5534 5531 5527 5524 5520 5517 5513 5509 5505 5501 5496 5492 5487 5482 5477 5473 5468 5463 5458 5452 5446 5441 5436 5430 5425 5420 5416 5412 5408 5405 5401 5398 5395 5392 5390 5387 5386 5383 5380 5377 5375 5373 5371 5368 5365 5363 5361 5358 5356 5355 5353 5351 5349 5348 5346 5344 5342 5341 5339 5337 5336 5334 5333 5332 5331 5329 5328 5327 5326 5326 5326 5326 5325 5325 5325 5325